Havre, MT

5:20 PM MST on February 06, 2016 (GMT -0700)
Havre City-County

Weather History for KHVR - November, 2013

Change the Weather History Date:

Monday, November 4, 2013

  Actual Average Record
Temperature  
Mean Temperature 24 °F 36 °F  
Max Temperature 32 °F 48 °F 76 °F (1976)
Min Temperature 16 °F 23 °F -8 °F (2003)
Degree Days  
Heating Degree Days 41 29  
Month to date heating degree days 122 114  
Since 1 July heating degree days 954 1113  
Cooling Degree Days 0 0  
Month to date cooling degree days 0 0  
Year to date cooling degree days 445 387  
Moisture  
Dew Point 17 °F    
Average Humidity 73    
Maximum Humidity 92    
Minimum Humidity 53    
Precipitation  
Precipitation 0.00 in 0.01 in 0.57 in (1958)
Month to date precipitation 0.01 0.06  
Year to date precipitation 17.48 10.43  
Snow  
Snow 0.00 in 0.20 in 2.40 in (1924)
Month to date snowfall 0.0 0.5  
Since 1 July snowfall 1.0 2.8  
Since 1 September snowfall 1.0 2.8  
Snow Depth 0.00 in    
Sea Level Pressure  
Sea Level Pressure 30.12 in    
Wind  
Wind Speed 8 mph (WNW)    
Max Wind Speed 22 mph    
Max Gust Speed 26 mph    
Visibility 10 miles    
Events      
T = Trace of Precipitation, MM = Missing Value Source: NWS Daily Summary

Daily Weather History Graph

Daily Weather History Graph

Search for Another Location

Airport or City:

Trip Planner

Search our weather history database for the weather conditions in past years. The results will help you decide how hot, cold, wet, or windy it might be!

Date:

Astronomy

Nov. 04, 2013 Rise Set
Actual Time 7:10 AM MST 4:54 PM MST
Civil Twilight 6:37 AM MST 5:27 PM MST
Nautical Twilight 5:59 AM MST 6:04 PM MST
Astronomical Twilight 5:23 AM MST 6:41 PM MST
Moon 8:29 AM MST (11/4) 5:55 PM MST (11/4)
Length of Visible Light 10h 50m
Length of Day
9h 43m
New Moon, 2% of the Moon is Illuminated
Nov 4
New Moon
Nov 9
First Quarter
Nov 17
Full
Nov 25
Last Quarter
Dec 2
New

Hourly Weather History & Observations

Time (MST) Temp. Windchill Dew Point Humidity Pressure Visibility Wind Dir Wind Speed Gust Speed Precip Events Conditions
12:53 AM 27.0 °F 13.5 °F 19.0 °F 72% 30.04 in 10.0 mi WNW 19.6 mph 26.5 mph N/A   Overcast
1:45 AM 24.8 °F 15.3 °F 19.4 °F 80% 29.97 in 10.0 mi WNW 9.2 mph - N/A   Scattered Clouds
1:53 AM 24.1 °F 15.2 °F 19.0 °F 81% 30.06 in 10.0 mi WNW 8.1 mph - N/A   Partly Cloudy
2:53 AM 23.0 °F 13.9 °F 19.0 °F 85% 30.07 in 10.0 mi West 8.1 mph - N/A   Clear
3:53 AM 19.0 °F 9.0 °F 17.1 °F 92% 30.08 in 10.0 mi WSW 8.1 mph - N/A   Clear
4:53 AM 19.9 °F 10.1 °F 17.1 °F 89% 30.10 in 10.0 mi West 8.1 mph - N/A   Clear
5:30 AM 19.4 °F 11.5 °F 15.8 °F 86% 30.01 in 10.0 mi SW 5.8 mph - N/A   Mostly Cloudy
5:53 AM 17.1 °F 8.7 °F 15.1 °F 92% 30.12 in 10.0 mi WSW 5.8 mph - N/A   Partly Cloudy
6:53 AM 19.0 °F 10.0 °F 15.1 °F 85% 30.12 in 10.0 mi WSW 6.9 mph - N/A   Clear
7:53 AM 21.0 °F 10.6 °F 17.1 °F 85% 30.14 in 10.0 mi WSW 9.2 mph - N/A   Partly Cloudy
8:53 AM 23.0 °F 13.9 °F 19.0 °F 85% 30.15 in 10.0 mi WNW 8.1 mph - N/A   Mostly Cloudy
9:19 AM 24.8 °F 13.4 °F 19.4 °F 80% 30.06 in 10.0 mi NW 12.7 mph - N/A   Overcast
9:28 AM 24.8 °F 12.9 °F 19.4 °F 80% 30.06 in 10.0 mi NW 13.8 mph - N/A   Overcast
9:48 AM 24.8 °F 13.4 °F 19.4 °F 80% 30.05 in 10.0 mi WNW 12.7 mph - N/A   Overcast
9:53 AM 25.0 °F 13.6 °F 19.0 °F 78% 30.15 in 10.0 mi WNW 12.7 mph - N/A   Overcast
10:53 AM 28.0 °F 18.6 °F 19.0 °F 69% 30.15 in 10.0 mi West 10.4 mph - N/A   Mostly Cloudy
11:04 AM 26.6 °F 17.5 °F 17.6 °F 69% 30.06 in 10.0 mi West 9.2 mph - N/A   Mostly Cloudy
11:12 AM 28.4 °F 21.2 °F 17.6 °F 64% 30.05 in 10.0 mi NW 6.9 mph - N/A   Scattered Clouds
11:53 AM 30.0 °F 21.1 °F 18.0 °F 61% 30.14 in 10.0 mi West 10.4 mph - N/A   Scattered Clouds
12:06 PM 28.4 °F 18.5 °F 17.6 °F 64% 30.05 in 10.0 mi WNW 11.5 mph - N/A   Mostly Cloudy
12:53 PM 30.0 °F 19.5 °F 17.1 °F 59% 30.14 in 10.0 mi NW 13.8 mph - N/A   Mostly Cloudy
1:06 PM 30.2 °F 20.2 °F 17.6 °F 60% 30.05 in 10.0 mi NNW 12.7 mph - N/A   Mostly Cloudy
1:53 PM 30.0 °F 22.4 °F 17.1 °F 59% 30.14 in 10.0 mi NNW 8.1 mph - N/A   Scattered Clouds
2:53 PM 30.0 °F 22.4 °F 16.0 °F 56% 30.14 in 10.0 mi WNW 8.1 mph - N/A   Clear
3:53 PM 30.0 °F 22.4 °F 16.0 °F 56% 30.15 in 10.0 mi NW 8.1 mph - N/A   Clear
4:53 PM 25.0 °F 19.3 °F 16.0 °F 69% 30.17 in 10.0 mi NNW 4.6 mph - N/A   Partly Cloudy
5:53 PM 24.1 °F 19.7 °F 16.0 °F 71% 30.19 in 10.0 mi NNW 3.5 mph - N/A   Overcast
6:53 PM 23.0 °F - 16.0 °F 74% 30.20 in 10.0 mi Calm Calm - N/A   Mostly Cloudy
7:53 PM 23.0 °F 17.0 °F 17.1 °F 78% 30.19 in 10.0 mi SSW 4.6 mph - N/A   Overcast
8:53 PM 21.0 °F 11.4 °F 17.1 °F 85% 30.20 in 10.0 mi SSW 8.1 mph - N/A   Overcast
9:53 PM 19.0 °F 10.0 °F 15.1 °F 85% 30.19 in 10.0 mi SSW 6.9 mph - N/A   Overcast
10:53 PM 18.0 °F - 14.0 °F 84% 30.19 in 10.0 mi Calm Calm - N/A   Mostly Cloudy
11:53 PM 19.0 °F - 15.1 °F 85% 30.17 in 10.0 mi Calm Calm - N/A   Clear